Weather History for Maun, Botswana

Change the Weather History Date:

Tuesday, May 21, 2013

  Actual Average Record
Temperature  
Mean Temperature 66 °F -  
Max Temperature 81 °F 78 °F 86 °F (1999)
Min Temperature 52 °F 50 °F 44 °F (2006)
Cooling Degree Days 2    
Growing Degree Days 16 (Base 50)    
Moisture  
Dew Point 47 °F    
Average Humidity 49    
Maximum Humidity 72    
Minimum Humidity 30    
Precipitation  
Precipitation 0.00 in - - ()
Sea Level Pressure  
Sea Level Pressure 30.16 in    
Wind  
Wind Speed 6 mph ()    
Max Wind Speed 15 mph    
Max Gust Speed -    
Visibility 6.0 miles    
Events      
Averages and records for this station are not official NWS values.
T = Trace of Precipitation, MM = Missing Value Source: Averaged Metar Reports

Daily Weather History Graph

Daily Weather History Graph

Search for Another Location

Airport:

Trip Planner

Search our weather history database for the weather conditions in past years. The results will help you decide how hot, cold, wet, or windy it might be!

Date:

Astronomy

May. 21, 2013 Rise Set
Actual Time 6:49 AM CAT 5:55 PM CAT
Civil Twilight 6:26 AM CAT 6:19 PM CAT
Nautical Twilight 5:59 AM CAT 6:46 PM CAT
Astronomical Twilight 5:32 AM CAT 7:12 PM CAT
Moon 2:55 PM CAT (5/21) 2:48 AM CAT (5/21)
Length of Visible Light 11h 52m
Length of Day
11h 05m
Waxing Gibbous, 81% of the Moon is Illuminated
May 21
Waxing Gibbous
May 25
Full
May 31
Last Quarter
Jun 8
New
Jun 16
First Quarter

Hourly Weather History & Observations

Time (CAT) Temp. Dew Point Humidity Pressure Visibility Wind Dir Wind Speed Gust Speed Precip Events Conditions
12:00 AM 64.4 °F 46.4 °F 52% 30.18 in - SE 8.1 mph - N/A   Clear
1:00 AM 62.6 °F 46.4 °F 55% 30.15 in - SE 5.8 mph - N/A   Clear
2:00 AM 59 °F 47 °F 53%  in 6 mi SSE 4.6 mph - -   Partly Cloudy
2:00 AM 59.0 °F 46.4 °F 63% 30.15 in - SSE 4.6 mph - N/A   Clear
3:00 AM 59.0 °F 46.4 °F 63% 30.15 in - ESE 9.2 mph - N/A   Clear
4:00 AM 60.8 °F 46.4 °F 59% 30.15 in - ESE 10.4 mph - N/A   Clear
5:00 AM 59.0 °F 44.6 °F 59% 30.15 in - ESE 8.1 mph - N/A   Clear
6:00 AM 57.2 °F 44.6 °F 63% 30.18 in - SE 8.1 mph - N/A   Clear
7:00 AM 53.6 °F 44.6 °F 72% 30.18 in - Calm Calm - N/A   Clear
8:00 AM 56 °F 45 °F 57%  in 6 mi ESE 5.8 mph - -   Partly Cloudy
8:00 AM 57.2 °F 44.6 °F 63% 30.21 in - ESE 5.8 mph - N/A   Clear
9:00 AM 64.4 °F 48.2 °F 56% 30.21 in - East 9.2 mph - N/A   Clear
10:00 AM 71.6 °F 50.0 °F 46% 30.24 in - East 12.7 mph - N/A   Clear
11:00 AM 75.2 °F 48.2 °F 38% 30.21 in - East 15.0 mph - N/A   Clear
12:00 PM 77.0 °F 48.2 °F 36% 30.18 in - East 10.4 mph - N/A   Clear
1:00 PM 78.8 °F 46.4 °F 32% 30.15 in - ESE 3.5 mph - N/A   Clear
2:00 PM 80.6 °F 46.4 °F 30% 30.12 in - SE 5.8 mph - N/A   Clear
3:00 PM 80.6 °F 50.0 °F 34% 30.15 in - South 4.6 mph - N/A   Clear
4:00 PM 80.6 °F 48.2 °F 32% 30.09 in - ESE 5.8 mph - N/A   Clear
5:00 PM 78.8 °F 46.4 °F 32% 30.09 in - SSE 6.9 mph - N/A   Clear
6:00 PM 75.2 °F 48.2 °F 38% 30.12 in - SSE 4.6 mph - N/A   Clear
7:00 PM 69.8 °F 50.0 °F 49% 30.12 in - SE 5.8 mph - N/A   Clear
8:00 PM 68 °F 46 °F 35%  in 6 mi SE 8.1 mph - -   Partly Cloudy
8:00 PM 68.0 °F 46.4 °F 46% 30.15 in - SE 8.1 mph - N/A   Clear
9:00 PM 64.4 °F 46.4 °F 52% 30.18 in - SE 9.2 mph - N/A   Clear
10:00 PM 62.6 °F 48.2 °F 59% 30.18 in - SE 8.1 mph - N/A   Clear
11:00 PM 62.6 °F 46.4 °F 55% 30.18 in - SE 8.1 mph - N/A   Clear